Location: Arborea
(39.7744°N, 8.5819°E)
Time: 01:17:26
(UTC+00:00)

Cosmos 1000 Rocket - Pass Details

Date: 06 October 2023
Orbit: 952 x 993 km, 82.9° (Epoch: 03 December)

Event Time Altitude Azimuth Distance (km) Brightness Sun altitude
Exits shadow 19:49:59 25° 15° (NNE) 1,887 6.0 -32.7°
Drops below altitude 10° 19:52:26 10° 11° (NNE) 2,764 7.0 -33.2°
Sets 19:54:59 0° 10° (N) 3,715 7.7 -33.6°
